GEFSSE_500_meanwind_090.txt.gz
Wind_Speed
3 3 3 4 5 6 5 4 5 4 4 3 3 2 2 2 3 4 5 7 8 9 10 10 10 9 9 8 7 6 6 5 5 5 5 5 5 4 3 3 2 2 1
4 4 4 5 6 7 7 6 6 5 4 4 3 3 3 3 3 4 5 6 8 9 10 10 10 9 9 7 7 6 6 5 4 4 5 5 4 4 3 2 2 2 1
5 5 5 6 7 7 8 7 7 6 6 5 5 4 4 4 4 4 5 6 7 8 9 9 9 9 9 7 6 6 5 4 4 4 4 4 4 3 3 2 2 2 2
5 6 7 8 8 8 9 9 9 8 8 7 7 6 5 5 5 5 5 6 7 8 9 9 9 9 8 7 6 5 5 4 3 3 3 3 3 3 3 3 3 3 2
7 7 8 9 9 9 9 10 10 10 9 9 9 8 8 7 7 7 7 7 7 7 8 8 9 8 8 7 6 5 5 4 4 3 3 3 3 3 3 3 3 3 3
9 9 9 9 9 9 10 10 11 11 11 11 11 11 10 10 10 9 8 8 7 8 8 8 8 8 8 7 6 6 5 5 4 4 4 3 3 3 3 4 4 4 4
10 10 11 10 10 10 10 11 11 12 12 13 13 12 12 12 12 11 10 9 9 9 9 8 8 8 8 7 7 6 6 6 6 5 5 4 4 4 3 4 4 5 5
11 11 11 11 11 10 10 11 12 13 13 13 14 14 13 13 13 13 12 11 10 10 10 9 9 9 8 7 7 7 7 7 7 6 5 5 5 4 4 4 5 5 5
13 12 12 13 13 12 12 12 13 14 14 15 15 14 15 14 14 14 13 12 12 11 11 10 10 9 9 8 8 8 9 9 8 7 6 6 5 5 4 4 5 6 6
15 14 14 14 14 14 14 13 14 14 15 16 16 16 16 16 16 15 14 14 13 13 13 12 11 10 10 9 9 9 10 9 9 8 8 7 6 5 5 5 6 6 6
17 17 16 16 16 16 16 15 16 16 17 17 17 17 17 17 17 17 16 16 15 15 14 13 12 12 11 11 10 11 11 11 10 10 9 8 7 7 6 6 7 7 7
19 19 18 18 18 18 18 17 17 18 19 18 18 18 18 18 18 18 18 17 17 17 16 15 14 14 13 12 12 12 12 12 11 11 11 10 9 9 8 8 8 8 9
21 19 20 19 19 20 20 20 20 20 20 21 21 20 20 20 19 20 20 20 19 18 18 17 16 15 15 14 13 13 13 13 13 12 12 11 11 11 11 10 10 10 10
23 22 21 22 22 22 22 22 22 23 22 23 24 24 23 22 22 21 21 21 21 20 20 19 19 18 17 16 15 15 15 15 14 14 14 13 13 12 13 12 12 12 12
25 24 24 24 24 24 24 24 23 24 26 25 26 26 25 24 23 23 22 22 22 22 21 21 21 19 19 18 17 16 16 16 16 16 16 15 14 14 14 14 14 15 15
27 27 26 26 26 27 26 26 26 26 28 28 28 28 28 27 25 24 25 24 23 23 23 23 22 21 21 20 19 18 18 18 17 18 17 16 16 16 16 16 17 17 18
26 27 27 27 27 27 27 27 27 29 29 30 29 29 29 28 28 26 26 25 25 25 25 25 24 22 21 21 21 20 20 20 19 19 19 18 18 18 18 18 19 19 19
27 27 28 28 28 28 28 28 29 29 30 29 30 30 30 30 29 28 28 27 27 27 27 26 25 24 23 23 23 22 22 22 21 20 20 20 20 19 20 20 20 20 20
27 28 28 28 28 29 29 30 29 29 30 30 31 32 31 30 31 31 30 30 30 30 29 28 27 26 26 25 24 24 24 23 22 22 22 22 22 22 22 21 22 22 22
28 29 29 29 29 30 30 30 30 31 32 32 31 31 30 30 31 33 33 32 33 32 31 31 30 28 28 27 27 26 25 24 24 24 24 24 24 24 24 24 24 24 24
28 29 29 30 30 30 31 31 32 32 33 33 32 32 32 32 32 32 33 33 34 34 32 32 32 31 30 30 29 28 28 26 26 25 25 25 25 25 26 26 26 26 26
25 26 27 28 29 30 29 30 31 31 31 31 32 32 32 32 31 32 32 31 33 33 33 33 32 32 31 31 31 30 29 28 28 28 27 27 26 27 28 28 28 28 29
25 25 26 27 27 28 28 28 29 30 31 29 31 32 31 32 31 31 31 30 31 32 33 35 35 35 34 33 32 31 30 30 30 30 29 29 29 29 30 30 30 30 30
24 24 24 24 25 26 26 26 26 27 28 30 29 29 28 27 27 29 30 31 31 30 31 33 34 34 34 33 33 33 32 31 30 31 30 30 31 31 31 31 31 32 32
22 21 21 21 22 23 24 25 25 26 26 27 28 28 27 26 26 28 29 29 30 30 30 30 32 32 33 33 33 33 32 32 32 32 32 32 32 32 33 33 33 33 33
20 20 20 20 21 22 22 22 23 24 25 26 26 27 27 26 26 27 28 28 28 28 29 29 30 31 32 33 32 32 33 33 32 32 31 31 32 32 33 34 34 34 34

GEFSSE_500_meanwind_096.txt.gz
Wind_Speed
8 9 9 8 7 7 7 7 7 8 8 9 9 9 8 7 6 6 5 4 4 4 4 4 4 4 4 3 3 3 3 3 3 3 4 4 4 4 4 4 4 3 3
8 9 9 9 8 8 8 8 8 8 9 9 9 9 8 7 6 5 4 4 3 3 3 3 3 3 3 2 2 1 1 1 1 2 3 4 4 4 4 4 3 3 3
9 9 9 10 9 9 9 9 9 9 9 9 9 9 9 8 7 6 5 4 3 2 1 1 1 2 1 1 1 1 1 0 0 1 2 3 4 4 4 3 3 3 3
9 10 9 10 10 10 10 10 10 10 10 10 9 9 9 9 8 6 6 4 3 2 1 1 0 1 1 1 1 1 1 1 1 0 1 2 3 3 3 3 2 2 2
10 10 10 10 11 11 11 11 12 12 12 12 11 10 10 9 9 8 7 6 5 4 3 3 2 2 2 2 2 2 2 2 2 1 1 1 2 2 2 2 2 2 2
10 11 11 11 11 11 12 12 13 13 13 13 13 13 12 11 11 10 9 8 7 6 5 5 4 4 4 3 3 3 3 3 3 2 2 1 1 2 2 1 1 2 2
11 12 11 11 11 12 13 13 14 15 15 15 15 15 14 14 13 12 11 10 9 9 8 7 6 6 5 5 4 4 5 5 4 4 3 3 2 2 2 2 2 1 2
12 12 13 13 13 13 14 14 15 15 16 16 16 16 16 16 15 14 14 13 12 11 10 9 9 8 7 7 6 6 6 6 6 5 5 4 4 4 3 3 2 2 2
12 13 13 13 14 14 14 15 15 16 17 17 17 17 17 17 17 16 16 15 14 14 13 12 11 10 9 9 8 8 8 8 8 7 6 6 5 5 4 4 3 3 3
14 14 14 15 15 15 16 16 16 17 17 18 18 19 18 18 18 18 17 17 16 16 15 14 13 12 11 11 10 9 9 9 9 9 8 8 7 7 6 5 4 4 4
16 15 16 16 17 17 17 17 17 18 19 19 20 20 20 19 19 19 18 18 17 17 16 16 15 14 14 12 12 11 10 10 10 10 10 10 9 9 8 7 6 5 5
17 16 17 17 17 18 18 18 19 19 20 21 21 21 21 21 21 20 20 20 19 18 18 17 16 16 15 14 14 13 12 12 12 12 12 11 11 10 10 9 8 7 7
18 18 18 18 19 19 20 20 20 20 21 22 22 22 22 23 23 22 22 22 21 20 19 19 18 17 17 16 15 15 14 14 13 13 13 13 12 12 11 11 10 10 9
20 19 20 20 19 20 21 22 22 22 23 23 24 24 23 24 24 23 23 23 22 21 21 20 19 19 19 18 17 17 16 16 15 15 14 14 14 13 13 12 12 12 12
22 22 21 22 22 22 22 23 23 23 24 24 24 25 25 25 25 24 24 24 24 23 22 22 21 21 20 20 19 19 18 18 17 16 16 16 16 15 15 14 14 14 14
24 24 24 24 25 25 25 25 25 26 26 25 25 26 26 27 27 27 27 26 25 24 23 23 22 22 22 21 20 20 20 20 20 19 18 18 18 17 17 17 16 16 16
25 25 25 25 26 26 27 27 27 27 27 27 27 28 28 29 29 29 29 28 27 26 25 24 24 24 24 24 23 22 22 21 21 21 20 20 20 19 19 19 18 18 18
26 26 26 26 26 27 28 28 28 28 28 29 29 30 30 30 30 30 30 30 30 29 27 26 26 25 26 25 25 25 24 23 23 23 22 22 21 21 20 20 20 20 20
26 26 26 27 28 28 29 29 29 29 29 30 30 31 31 31 31 31 31 32 32 32 30 28 27 27 27 27 27 27 26 26 25 25 24 24 23 23 23 22 23 23 22
26 27 27 27 28 29 30 31 31 31 31 31 32 31 31 32 32 31 31 34 33 32 32 31 30 29 29 30 30 29 28 27 27 27 26 26 25 25 25 25 25 25 24
27 27 28 28 28 29 30 31 32 32 33 32 32 32 31 32 33 32 32 34 34 32 33 32 32 32 31 30 31 31 29 29 29 29 28 28 28 27 27 27 27 27 26
26 27 28 29 28 29 30 31 33 33 34 34 33 33 32 32 32 32 32 33 34 33 33 33 33 33 33 33 32 32 32 31 31 31 31 30 30 29 28 29 29 29 28
26 27 27 28 27 28 29 30 31 31 32 32 33 33 32 32 32 33 32 33 35 35 34 34 34 33 34 34 33 33 33 34 33 33 33 32 32 31 31 31 30 30 30
25 26 26 26 27 28 28 29 30 30 31 32 32 32 32 31 31 32 32 33 34 35 35 35 34 35 34 34 34 33 33 34 34 35 34 33 34 33 33 33 33 32 32
23 24 24 25 26 27 27 27 28 29 30 31 31 31 31 31 31 32 32 33 34 35 35 34 34 34 33 33 34 33 33 34 35 34 34 34 34 34 34 34 34 34 34
21 22 23 24 24 25 25 26 27 27 28 29 30 30 30 31 31 32 32 32 33 33 33 32 33 33 33 32 33 34 34 34 33 34 34 34 35 35 35 35 35 35 35

GEFSSE_500_meanwind_102.txt.gz
Wind_Speed
11 10 9 9 8 8 8 8 8 7 7 7 7 8 8 8 8 7 6 5 4 3 2 1 1 1 2 2 2 3 3 4 4 5 5 5 5 5 5 5 5 5 5
11 10 10 10 9 9 9 9 8 8 8 8 8 9 9 9 9 8 7 6 5 4 3 2 1 1 1 1 1 1 2 2 3 4 4 5 5 5 5 5 5 5 5
13 12 12 11 11 10 10 10 9 9 9 9 9 10 10 10 10 9 9 8 7 6 4 3 2 2 1 1 0 0 0 1 2 2 3 3 4 4 4 4 4 4 4
14 14 13 13 12 12 11 11 11 10 10 10 11 11 11 12 12 11 10 9 8 7 6 5 4 3 3 2 2 2 2 2 2 1 1 2 2 3 4 4 4 4 4
15 15 15 14 14 13 13 13 12 12 11 11 11 12 12 12 12 12 11 11 10 9 8 6 6 5 4 4 4 4 4 3 3 2 1 0 1 2 3 3 3 3 3
16 16 15 15 15 15 15 14 14 13 13 13 13 13 13 13 13 13 13 12 11 10 9 8 7 7 6 5 5 5 5 5 4 3 2 1 1 1 2 2 2 3 2
16 16 16 15 15 16 16 16 15 15 15 14 14 14 15 15 14 15 14 14 13 12 11 10 9 9 8 7 7 7 7 6 6 5 4 3 2 2 1 1 2 2 2
16 16 16 16 16 16 17 17 16 16 16 16 16 16 16 16 16 16 16 15 15 14 13 12 12 11 10 9 9 9 8 8 7 7 6 5 4 3 2 2 2 2 2
16 16 16 17 17 17 17 18 17 17 17 17 17 18 17 17 18 18 18 17 17 16 15 15 14 13 12 11 11 10 10 9 9 8 7 7 6 5 4 3 3 2 2
17 16 16 17 17 18 18 18 18 18 18 18 19 19 19 19 19 19 19 19 18 18 17 16 15 14 14 13 13 12 12 11 10 9 9 8 8 7 6 5 5 4 4
16 16 16 17 17 18 19 19 19 19 19 19 19 20 20 20 20 20 20 20 20 19 19 18 17 16 15 15 14 14 14 13 12 11 10 10 10 9 8 7 7 7 6
15 16 16 17 18 18 19 19 19 19 19 20 20 21 21 21 21 21 22 22 21 21 21 20 18 18 17 17 16 16 15 15 13 12 12 12 12 11 10 9 9 8 8
15 16 15 16 17 18 19 19 19 19 20 21 21 21 21 22 22 22 22 22 22 23 23 22 21 20 19 18 18 18 17 17 15 14 14 14 14 13 12 12 11 11 10
14 15 14 14 16 17 18 17 18 20 21 22 23 23 23 23 23 23 23 23 23 23 24 23 23 22 21 20 20 20 19 18 17 16 15 16 16 15 14 14 14 13 13
16 16 16 16 18 18 18 18 19 20 21 22 24 24 24 24 24 23 24 23 23 24 24 24 24 23 23 22 22 21 21 20 19 18 18 17 17 17 17 16 16 15 15
19 19 17 17 18 19 20 20 21 22 22 23 23 23 24 25 25 25 25 26 26 25 25 25 26 25 25 24 23 23 22 22 21 20 19 19 18 19 19 19 18 17 17
20 21 20 18 19 21 21 22 23 24 24 24 24 25 25 26 27 27 27 27 27 27 27 27 26 26 26 25 25 24 24 23 23 22 21 21 19 20 20 20 20 20 20
21 22 22 21 22 23 23 24 25 25 26 26 26 27 27 28 28 29 29 29 29 29 29 29 28 27 27 27 26 26 25 25 24 24 23 22 22 22 22 22 22 22 22
24 24 24 24 24 25 25 26 26 27 28 28 29 29 29 29 30 30 31 31 31 31 31 31 29 29 29 29 28 27 27 28 27 26 25 25 25 25 24 23 23 24 23
24 25 25 26 26 27 27 28 28 29 29 30 30 30 31 31 31 32 33 32 32 31 31 30 30 31 31 30 30 29 29 29 29 28 27 27 27 26 26 26 25 25 26
25 26 26 27 28 29 29 30 30 30 30 31 31 31 32 32 33 33 33 32 32 31 31 31 30 30 31 31 31 30 30 30 30 29 28 28 28 28 28 27 27 27 27
25 26 27 28 28 29 30 31 31 31 31 31 31 32 32 32 32 32 33 32 32 32 31 31 30 31 32 32 32 32 31 31 31 30 30 29 30 30 30 29 29 29 29
24 26 27 28 28 29 30 31 31 32 33 33 32 32 33 33 34 33 33 33 33 32 31 31 31 31 31 32 32 32 32 32 32 31 32 31 31 32 32 32 31 30 29
24 25 26 26 27 28 29 30 31 32 33 33 33 33 33 34 33 34 34 34 32 32 31 32 32 32 32 33 33 33 33 33 33 33 33 33 33 33 33 33 33 32 31
24 24 24 25 25 26 28 29 29 30 31 32 31 32 32 32 33 34 34 34 34 32 32 32 32 32 33 33 33 33 33 33 33 33 33 33 34 34 34 34 34 34 34
23 24 23 24 25 26 27 27 28 29 30 30 30 31 32 32 33 34 34 34 33 33 33 33 33 33 33 32 33 35 35 35 33 33 32 32 33 34 34 33 34 35 34

GEFSSE_500_meanwind_108.txt.gz
Wind_Speed
8 8 7 7 7 7 7 7 7 7 7 7 6 6 6 6 6 6 6 6 6 6 6 5 5 4 4 3 3 1 1 2 2 3 2 3 3 4 4 5 5 5 5
11 10 9 9 9 9 9 9 9 8 8 8 8 8 8 7 7 7 7 7 7 7 7 6 6 5 5 4 3 2 1 1 2 2 2 2 3 4 4 4 4 4 5
13 12 11 11 10 10 10 10 10 10 9 9 9 9 8 8 8 8 8 8 8 8 8 7 7 6 6 5 4 3 2 2 1 1 1 2 3 3 3 3 3 4 4
15 13 13 12 11 11 11 11 11 11 10 10 10 10 9 9 9 9 9 9 9 9 9 8 8 7 7 6 5 4 3 3 2 1 0 1 2 2 3 3 3 3 3
17 16 14 13 13 12 12 13 12 12 12 11 11 10 10 10 10 10 10 10 9 9 9 9 9 9 8 7 6 6 5 4 3 2 1 1 0 1 1 1 2 2 2
18 17 15 15 15 14 14 14 14 13 13 12 12 11 11 11 11 11 10 11 11 10 11 11 10 10 9 8 7 7 6 6 5 4 3 3 2 1 1 0 0 0 1
20 18 17 15 15 15 15 15 15 15 14 13 13 13 12 12 12 12 11 12 12 11 12 12 11 11 10 10 9 8 7 6 6 6 6 5 4 3 2 2 1 1 1
20 17 16 16 16 16 17 17 17 17 16 15 15 14 14 13 13 12 12 12 12 12 13 13 13 12 12 11 11 9 8 8 7 7 7 6 5 5 4 4 3 2 2
20 18 17 16 16 17 17 18 18 18 17 17 16 16 15 14 14 13 13 13 13 13 13 13 14 13 13 13 12 11 10 9 8 9 9 8 8 7 6 5 4 4 3
18 17 17 17 17 17 18 18 18 18 18 18 17 17 16 16 15 15 15 14 14 14 14 14 14 14 14 14 13 13 11 10 10 10 10 10 9 9 8 7 7 6 5
17 17 17 17 17 18 18 18 18 18 18 18 18 17 17 17 16 16 16 15 15 15 15 15 15 15 15 15 14 14 13 12 12 11 11 11 11 10 9 9 8 8 7
16 17 16 14 15 18 19 18 18 18 18 18 18 18 17 17 17 17 17 17 16 16 17 16 16 17 17 16 16 15 14 13 13 13 13 12 12 12 11 11 10 10 9
16 16 15 15 14 15 17 17 17 17 18 18 18 18 18 18 18 18 18 18 18 18 18 18 18 18 18 18 17 17 16 15 15 15 15 15 14 13 13 13 12 12 11
12 12 12 13 13 13 14 16 16 17 18 19 19 19 19 19 19 19 19 18 18 18 18 18 18 19 19 20 19 19 18 17 17 17 16 16 16 15 15 14 14 14 13
12 12 13 12 11 12 14 16 17 17 19 19 20 20 20 20 20 20 20 20 20 20 20 19 19 19 20 20 21 21 20 19 19 19 19 19 17 17 16 16 16 16 15
14 13 11 12 12 12 14 15 16 17 18 18 20 21 21 21 21 20 20 21 21 21 21 21 21 21 21 21 22 22 22 21 21 21 20 19 19 19 18 18 18 17 17
15 14 14 12 13 14 15 17 17 18 19 19 20 21 21 21 21 22 22 22 22 22 22 23 22 22 22 22 23 22 22 23 23 22 22 21 21 20 20 20 20 20 19
15 13 13 12 13 15 16 17 18 18 20 21 21 20 20 21 22 23 23 23 23 24 24 23 24 24 23 24 24 24 23 23 24 23 23 23 22 21 21 21 21 21 21
14 14 15 15 15 15 16 18 18 19 21 22 23 22 22 23 23 23 24 24 24 25 25 25 25 25 25 24 25 25 25 25 25 24 25 24 24 24 24 24 23 23 23
15 14 15 16 16 17 18 19 19 21 21 23 24 24 24 24 24 25 25 25 26 26 26 26 26 26 26 26 26 26 26 26 26 26 26 26 25 25 25 25 24 24 25
16 16 16 16 16 18 19 19 21 23 24 24 25 26 26 26 26 26 26 27 27 27 28 28 27 27 27 27 26 27 27 27 28 27 27 27 27 26 26 25 25 25 26
17 18 17 17 18 18 19 21 22 24 25 26 26 27 27 27 27 28 27 28 28 28 28 28 28 28 27 27 27 26 27 27 28 29 28 27 27 26 26 26 26 26 27
17 18 18 18 19 19 20 21 22 23 24 25 26 27 28 28 28 28 28 28 28 29 29 29 29 28 28 27 28 27 27 27 28 28 28 27 28 28 28 28 27 27 28
16 17 18 19 19 20 20 22 22 23 24 26 26 27 28 28 29 29 29 29 29 29 29 30 30 29 29 29 29 28 28 27 27 27 28 28 28 28 28 28 28 29 28
16 17 18 18 19 20 21 22 23 24 25 26 26 27 27 28 28 28 29 29 29 28 29 29 30 30 30 30 29 29 28 28 27 28 28 28 28 28 28 28 29 30 31
16 17 18 18 19 19 20 21 22 23 24 24 25 25 26 26 27 27 28 28 29 29 29 29 30 30 30 29 29 30 29 29 29 29 29 30 29 29 29 29 30 30 31